Regional Weather Roundup
Issued by NWS

Home | Current Version | Previous Version | Graphics & Text | Print | Product List | Glossary On
Versions: 1 2 3 4 5 6 7 8 9 10 11 12 13 14 15 16 17 18 19 20 21 22 23 24 25 26 27 28 29 30 31 32 33 34 35 36 37 38
000
ASUS45 KBOU 270407
RWRCO

WEATHER ROUNDUP FOR COLORADO
NATIONAL WEATHER SERVICE DENVER/BOULDER CO
900 PM MST FRI DEC 26 2014

NOTE: "FAIR" INDICATES FEW OR NO CLOUDS BELOW 12000 FEET WITH NO
SIGNIFICANT WEATHER AND/OR OBSTRUCTIONS TO VISIBILITY.

COZ001>005-013-030-031-270500-
...NORTHWEST COLORADO...

CITY           SKY/WX    TMP DP  RH WIND       PRES   REMARKS
CRAIG          CLOUDY    14   9  80 W10       30.03R WCI   1
HAYDEN         PTCLDY    10   7  85 NW5       30.00R WCI   2
MEEKER         LGT SNOW  12   7  80 CALM      30.03R
MOUNT WERNER   NOT AVBL
STEAMBOAT SPGS CLOUDY    12   9  87 CALM      29.99R
WALDEN         CLOUDY     5   0  78 NW8       29.91R WCI  -8
$$

COZ006>008-011-270500-
...WEST CENTRAL VALLEYS...

CITY           SKY/WX    TMP DP  RH WIND       PRES   REMARKS
GRAND JUNCTION PTCLDY    16  10  77 CALM      30.08R
MONTROSE       CLOUDY    23  15  71 NW5       30.05R WCI  17
EAGLE          LGT SNOW  18  12  79 W10       30.00R FOG     WCI   6
RIFLE          CLOUDY    19   8  62 NW6       30.05R WCI  11
DELTA          CLOUDY    28  15  60 CALM      30.03R
NUCLA          PTCLDY    21  14  73 W5        30.07R WCI  15
$$

COZ017>023-064>068-270500-
...SOUTHWEST COLORADO...

CITY           SKY/WX    TMP DP  RH WIND       PRES   REMARKS
DURANGO        PTCLDY    16  12  84 NW5       29.97R WCI   9
CORTEZ         CLOUDY    24  15  68 W5        30.03R WCI  18
PAGOSA SPRINGS LGT SNOW  19  19  96 CALM      29.95R
TELLURIDE      LGT SNOW  11   9  89 W3        29.92R
WOLF CREEK PAS CLOUDY     1   0  92 MISG      29.79R
$$

COZ009-010-012-014-032>034-037-058>063-270500-
...CENTRAL COLORADO...

CITY           SKY/WX    TMP DP  RH WIND       PRES   REMARKS
ASPEN          LGT SNOW  13   9  84 N5        29.93R FOG     WCI   5
BUENA VISTA    LGT SNOW  -4  -8  85 SW5       29.93R WCI -15
COPPER MTN     LGT SNOW   5  -4  66 W17       29.75R VSB 1   WCI -14
BERTHOUD PASS  HAZE      -6 -11  77 MISG      29.71S VSB 1/2
COTTONWOOD PAS LGT SNOW   9   3  78 CALM      29.83R
GUNNISON       PTCLDY     1  -8  66 CALM      29.95R
KREMMLING      CLOUDY    14   3  62 NW7       29.96R WCI   4
LEADVILLE      MOCLDY     0  -4  83 NE3       29.81R
MONARCH PASS   CLOUDY     1  -2  85 MISG      29.85R
SALIDA         CLOUDY     8   2  79 SW6       30.02R WCI  -2
SUNLIGHT       CLOUDY   N/A N/A N/A SW3       29.84R
WILKERSON PASS CLOUDY     1  -4  78 SW7       29.78R FOG     WCI -11
$$

COZ069>075-270500-
...SAN LUIS VALLEY/SANGRE DE CRISTO MOUNTAINS...

CITY           SKY/WX    TMP DP  RH WIND       PRES   REMARKS
ALAMOSA        CLOUDY    15  12  88 W6        29.91R WCI   6
LA VETA PASS   NOT AVBL
SAGUACHE       CLOUDY     3   0  85 NW8       29.92R WCI -10
$$

COZ035-036-038>040-270500-
...NORTHERN COLORADO FRONT RANGE...

CITY           SKY/WX    TMP DP  RH WIND       PRES   REMARKS
DENVER INTL AP CLOUDY    13  11  92 CALM      30.06R FOG
DMNS CITY PARK   N/A     13  11  94 E2        30.07R
AURORA         MOCLDY    11   9  93 SE3       30.06R
FRONT RANGE AP LGT SNOW  16  14  93 CALM      30.06R
ERIE MUNI ARPT LGT SNOW  15  14  94 CALM      30.08R
BOULDER MUN AP FLURRIES  16  14  93 CALM      30.07R
CENTENNIAL     FLURRIES  13  10  88 CALM      30.04R
BROOMFIELD     MOCLDY    10   9  92 CALM      30.05R
FORT COLLINS   MOCLDY    16  12  86 S5        30.09R WCI   9
LONGMONT       LGT SNOW  18  15  88 CALM      30.10R
$$

COZ041-046-047-076>085-087-088-270500-
...PIKES PEAK/PALMER DIVIDE AND SOUTHERN FOOTHILLS...

CITY           SKY/WX    TMP DP  RH WIND       PRES   REMARKS
COLO. SPRINGS  FLURRIES  16  13  88 SW13      30.02R WCI   2
A. F. ACADEMY  CLOUDY    13   6  74 N12       29.98R WCI  -1
ELLICOTT       NOT AVBL
FALCON         CLOUDY    13   6  73 N10       29.98R WCI   0
FORT CARSON    FLURRIES  17  11  78 S6        30.02R WCI   8
LIMON          CLOUDY    10   7  87 NW12      30.06R WCI  -5
MONUMENT HILL  FLURRIES   9   5  85 NW3       29.96R
TRINIDAD       CLOUDY    11   7  84 W5        30.04R WCI   3
$$

COZ042>045-048>051-090-091-270500-
...NORTHEAST COLORADO...

CITY           SKY/WX    TMP DP  RH WIND       PRES   REMARKS
GREELEY ARPT   CLOUDY    14   9  79 CALM      30.09R
AKRON          LGT SNOW  12  10  92 W5        30.08R FOG     WCI   4
BURLINGTON     CLOUDY    11   8  88 NW9       30.10R WCI  -2
WRAY           LGT SNOW  18  16  90 NW5       30.12R WCI  11
STERLING       LGT SNOW  18  16  93 W5        30.11R WCI  11
HOLYOKE        LGT SNOW  19  16  86 N7        30.12R WCI  10
FORT MORGAN    LGT SNOW  14  12  91 W5        30.11R WCI   6
$$

COZ086-089-092>099-270500-
...SOUTHEAST COLORADO...

CITY           SKY/WX    TMP DP  RH WIND       PRES   REMARKS
PUEBLO         CLOUDY    19  14  81 SE6       30.09R WCI  11
LA JUNTA       CLOUDY    13   8  81 N5        30.13R WCI   5
LAMAR          CLOUDY    16  12  84 NW7       30.13R WCI   6
SPRINGFIELD      N/A     17  15  92 NW8       30.08R WCI   7
$$


USA.gov is the U.S. government's official web portal to all federal, state and local government web resources and services.